Terminal Aerodrome Forecast
Issued by NWS Spokane, WA

Home | Current Version | Previous Version | Text Only | Print | Product List | Glossary On
Versions: 1 2 3 4 5 6 7 8 9 10 11 12 13 14 15 16 17 18 19 20 21 22 23 24 25 26 27 28 29 30 31 32 33 34 35 36 37 38 39 40 41
000
FTUS46 KOTX 190823 AAA
TAFGEG
TAF AMD
KGEG 190823Z 1908/2006 12005KT P6SM -RA SCT015 OVC040
     FM191500 17007KT 4SM -RA BR BKN008 OVC015
     FM192200 21010KT P6SM BKN015 OVC030
     FM200400 19005KT 4SM BR BKN010=

USA.gov is the U.S. government's official web portal to all federal, state and local government web resources and services.